PEGASUS DEB

Satellite information

Favourite Embed

Satellite Type and Status

DEBRISIN ORBIT

Key statistics

Satellite PEGASUS DEB at a glance.

Uptime

11531

Days in orbit

Revolutions

≈ 14.2

Per day

Orbit

LEO

Low Earth Orbit

Inclination

81.8

Latest

Satellite identification and parameters

Extended collection of information and parameters for PEGASUS DEB.

Object identification

Identified? True

Debris? True

Object name: PEGASUS DEB

International designator: 1994-029AFZ

Object number (NORAD): 39926

Object ID (CCSDS): 39926

Country: UNITED STATES OF AMERICA (US)

Current information (Y/N): Y

RCS size: SMALL

Orbital parameters

Period: 101.123 minutes

Inclination: 81.8426 deg

SMA: 7189.959 km

Apoapsis: 1026.378 km

Periapsis: 597.269 km

RAAN: 75.9074 deg

Eccentricy: 0.02984087

Argument of periapsis: 1.8507 deg

Mean anomaly: 63.1582 deg

Mean motion: 14.24010443 rev/day

Mean motion (dot): 0.00001484 rev/day2

B* drag term: 0.00040213493 1/REarth

Two-line elements (TLE)

Creation date: Dec. 11, 2025, 7:14 p.m.

Reference frame: TEME

Reference center: EARTH

Epoch: Dec. 11, 2025, 2:38 p.m. UTC

TLE line 0: 0 PEGASUS DEB

TLE line 1: 1 39926U 94029AFZ 25345.61021015 .00001484 00000-0 40213-3 0 9998

TLE line 2: 2 39926 81.8426 75.9074 0298409 1.8507 63.1582 14.24010443596047

Live tracking on map

Real-time ground track for satellite PEGASUS DEB.

In-orbit conjunctions

A list of the most updated potential collisions computed for object PEGASUS DEB.

Target Orbit TCA Probability of collision Miss distance Type
FENGYUN 1C DEB SSO 2025-03-24 10:44:24 0.0001028827 229.0 (m) DEBRIS
NOAA 16 DEB SSO 2025-02-02 14:37:57 0.0001118683 116.0 (m) DEBRIS
FENGYUN 1C DEB SSO 2024-10-10 05:47:31 0.0001226022 88.0 (m) DEBRIS

Associated space launch

PEGASUS DEB was lifted into orbit during the mission ‘Pegasus HAPS | Space Test Experiments Platform 2 (STEP-2)’, on board a Pegasus HAPS space rocket.

The launch took place on May 19, 1994, 5:03 p.m. from Edwards Air Force Base.

For more information about the launch, click the button.

Launch to space Pegasus HAPS | Space Test Experiments Platform 2 (STEP-2)
Pegasus HAPS | Space Test Experiments Platform 2 (STEP-2)

Agency: N/A

Status: Launch Successful

Launch date: May 19, 1994, 5:03 p.m. UTC

Rocket: Pegasus HAPS

Launch pad: Edwards Air Force Base

Location: Air launch to orbit

...

Latest news about this satellite

There are no fresh news available about this satellite. Check back as we update our databases every day.


Newsletter sign-up

Weekly statistics, charts and insights to help you stay on top of the space industry.